Погода в Троецком

Россия / Волгоградская область     50°21′49″N   42°51′57″E
темп.,
°C
ветер,
м/с
пор.,
м/с
влажн.,
%
обл.,
%
осадки,
мм/ч
давл.,
гПа
погр.,
м
11 мая, вт
вт1100:00+7вюв489490 0.1 1013502
03:00+6вюв6118663 0.1 1014723
06:00+6в61289100 0.0 1016583
09:00+8вюв81385100 0.1 10181242
12:00+9юв9137984 0.2 10201253
15:00+10юв81477100 0.4 10231575
18:00+10в4980100 0.1 1024392
21:00+8всв4983100 0.1 1024150
12 мая, ср
ср1200:00+8всв4979100 0.0 1023153
03:00+9св61474100 0.0 1022353
06:00+9св4108381 0.0 1021349
09:00+13всв346891 0.0 1020605
12:00+16в345339 0.0 10191459
15:00+18вюв474712 0.0 10192005
18:00+18вюв366023 0.0 1019273
21:00+12вюв347665 0.0 101947
13 мая, чт
чт1300:00+14всв357899 0.0 101897
03:00+14св359198 0.0 1017105
06:00+14всв128987 0.0 101779
09:00+18в11740 0.0 1017413
12:00+22ююв345648 0.1 10161622
15:00+23ю245199 0.1 10161549
18:00+20в3471100 0.1 101681
21:00+17вюв337765 0.1 101624
14 мая, пт
пт1400:00+16вюв3481100 0.0 101760
03:00+16вюв3582100 0.0 101769
06:00+16в47825 0.0 1017147
09:00+22вюв6864100 0.0 1017575
12:00+26юв684676 0.0 10161161
15:00+27ююв69445 0.0 10161529
18:00+25ююв49575 0.0 1015278
21:00+20вюв4767100 0.0 101583
15 мая, сб
сб1500:00+19юв61554100 0.0 1014317
03:00+18юв616439 0.0 1014345
06:00+16юв51555100 0.0 1015317
09:00+22ююв71547100 0.0 1014661
12:00+26ююв8123619 0.0 10151159
15:00+28ююв712365 0.0 10132083
18:00
21:00+19ю476593 0.0 1013113